Change the Weather History Date:

Tuesday, October 28, 2014

  Actual Average Record
Temperature  
Mean Temperature 43 °F 41 °F  
Max Temperature 66 °F 57 °F 77 °F (1968)
Min Temperature 19 °F 25 °F 5 °F (1970)
Degree Days  
Heating Degree Days 22 24  
Month to date heating degree days 386 537  
Since 1 July heating degree days 554 853  
Cooling Degree Days 0 0  
Month to date cooling degree days 0 0  
Year to date cooling degree days 286 218  
Moisture  
Dew Point 12 °F    
Average Humidity 39    
Maximum Humidity 62    
Minimum Humidity 15    
Precipitation  
Precipitation 0.00 in 0.03 in 0.68 in (1981)
Month to date precipitation T 0.90  
Year to date precipitation 8.09 8.37  
Snow  
Snow 0.00 in 0.20 in 3.30 in (1981)
Month to date snowfall 0.0 2.6  
Since 1 July snowfall 0.0 3.0  
Since 1 September snowfall 0.0 3.0  
Snow Depth 0.00 in    
Sea Level Pressure  
Sea Level Pressure 30.19 in    
Wind  
Wind Speed 8 mph (South)    
Max Wind Speed 16 mph    
Max Gust Speed 19 mph    
Visibility 10 miles    
Events      
T = Trace of Precipitation, MM = Missing Value Source: NWS Daily Summary

Daily Weather History Graph

Daily Weather History Graph

Search for Another Location

Airport or City:

Trip Planner

Search our weather history database for the weather conditions in past years. The results will help you decide how hot, cold, wet, or windy it might be!

Date:

Astronomy

Oct. 28, 2014 Rise Set
Actual Time 7:02 AM PDT 5:42 PM PDT
Civil Twilight 6:35 AM PDT 6:10 PM PDT
Nautical Twilight 6:03 AM PDT 6:41 PM PDT
Astronomical Twilight 5:32 AM PDT 7:12 PM PDT
Moon 11:35 AM PDT (10/28) 9:53 PM PDT (10/28)
Length of Visible Light 11h 35m
Length of Day
10h 39m
Waxing Crescent, 25% of the Moon is Illuminated
Oct 28
Waxing Crescent
Oct 30
First Quarter
Nov 6
Full
Nov 14
Last Quarter
Nov 22
New

Hourly Weather History & Observations

Time (PDT) Temp. Windchill Dew Point Humidity Pressure Visibility Wind Dir Wind Speed Gust Speed Precip Events Conditions
12:53 AM 23.0 °F 13.9 °F 9.0 °F 55% 30.17 in 10.0 mi South 8.1 mph 27.6 mph N/A   Clear
1:53 AM 23.0 °F 11.1 °F 8.1 °F 53% 30.17 in 10.0 mi South 12.7 mph - N/A   Clear
2:53 AM 21.9 °F 10.4 °F 10.0 °F 60% 30.16 in 10.0 mi South 11.5 mph - N/A   Clear
3:53 AM 21.9 °F 9.8 °F 10.0 °F 60% 30.16 in 10.0 mi South 12.7 mph - N/A   Clear
4:53 AM 21.0 °F 11.4 °F 9.0 °F 60% 30.18 in 10.0 mi South 8.1 mph - N/A   Clear
5:53 AM 19.9 °F 7.9 °F 9.0 °F 62% 30.23 in 10.0 mi South 11.5 mph - N/A   Clear
6:53 AM 21.0 °F 9.9 °F 8.1 °F 57% 30.26 in 10.0 mi South 10.4 mph - N/A   Clear
7:53 AM 24.1 °F 12.0 °F 9.0 °F 53% 30.27 in 10.0 mi South 13.8 mph - N/A   Clear
8:53 AM 36.0 °F 28.5 °F 12.0 °F 37% 30.24 in 10.0 mi South 10.4 mph - N/A   Clear
9:53 AM 46.0 °F 42.5 °F 14.0 °F 28% 30.20 in 10.0 mi South 6.9 mph - N/A   Clear
10:53 AM 54.0 °F - 10.9 °F 18% 30.19 in 10.0 mi NE 4.6 mph - N/A   Clear
11:53 AM 57.0 °F - 14.0 °F 18% 30.18 in 10.0 mi Calm Calm - N/A   Clear
12:53 PM 61.0 °F - 15.1 °F 17% 30.14 in 10.0 mi Variable 3.5 mph - N/A   Clear
1:53 PM 64.0 °F - 15.1 °F 15% 30.11 in 10.0 mi North 6.9 mph - N/A   Clear
2:53 PM 64.9 °F - 17.1 °F 16% 30.10 in 10.0 mi NNW 3.5 mph - N/A   Clear
3:53 PM 64.9 °F - 16.0 °F 15% 30.11 in 10.0 mi Calm Calm - N/A   Clear
4:53 PM 63.0 °F - 16.0 °F 16% 30.12 in 10.0 mi North 5.8 mph - N/A   Clear
5:53 PM 53.1 °F - 14.0 °F 21% 30.18 in 9.0 mi WNW 5.8 mph - N/A   Clear
6:53 PM 45.0 °F 43.5 °F 12.0 °F 26% 30.25 in 10.0 mi NW 3.5 mph - N/A   Clear
7:53 PM 37.0 °F 29.8 °F 10.0 °F 33% 30.28 in 10.0 mi SSE 10.4 mph - N/A   Clear
8:53 PM 37.9 °F 30.5 °F 12.9 °F 36% 30.24 in 10.0 mi South 11.5 mph - N/A   Clear
9:53 PM 35.1 °F 26.9 °F 12.0 °F 39% 30.23 in 10.0 mi South 11.5 mph - N/A   Clear
10:53 PM 32.0 °F 23.6 °F 12.9 °F 45% 30.21 in 10.0 mi SSE 10.4 mph - N/A   Clear
11:53 PM 32.0 °F 23.6 °F 12.9 °F 45% 30.20 in 10.0 mi South 10.4 mph - N/A   Clear